[[{"header":{"parameterUnit":"m.s-1","parameterCategory":1,"la1":30.2991,"la2":30.254,"lo1":-89.0895,"lo2":-89.0444,"dy":0.0017,"dx":0.0017,"nx":28,"ny":28,"refTime":"2024-08-22T21:00:00:Z","depth":0,"parameterNumber":2,"parameterNumberName":"U-component_of_WINDS"},"data":[0,0,0,0,0,0,0,0,0,0,0,0,0,0,0,0,0,0,0,0,0,0,0,0,0,0,0,0,0,0,0,0,0,0,0,0,0,0,0,0,0,0,0,0,0,0,0,0,0,0,0,0,0,0,0,0,0,0,0.5238,0.5239,0,0.5318,0.5319,0.532,0.532,0.5319,0.5318,0.5317,0.5397,0.54,0.5403,0,0,0,0,0,0,0,0,0,0,0,0,0,0.5083,0.5086,0.5238,0.5239,0.524,0.5318,0.5319,0.532,0.532,0.5319,0.5318,0.5317,0.5396,0.54,0.5403,0,0,0,0,0,0,0,0,0,0,0,0,0,0.5156,0.5087,0.5238,0.525,0.5251,0.5318,0.5319,0.532,0.532,0.5319,0.5317,0.5316,0.5395,0.5399,0.5404,0.5463,0,0,0.5418,0.542,0,0,0,0,0,0,0,0,0.5151,0.5161,0.5247,0.5249,0.5251,0.5308,0.5294,0.5368,0.5321,0.5294,0.5317,0.5315,0.5368,0.5375,0.5393,0.5467,0.547,0.5418,0.5421,0.5423,0.5424,0,0,0,0,0,0,0,0.5146,0.5158,0.527,0.5248,0.5251,0.525,0.5259,0.5308,0.5339,0.5296,0.5297,0.5306,0.5369,0.5389,0.5395,0.5471,0.5418,0.5422,0.5425,0.5427,0.5596,0.5597,0,0,0,0,0,0,0.5139,0.5154,0.5267,0.5272,0.5197,0.5254,0.5264,0.5291,0.5338,0.5344,0.5307,0.5306,0.5382,0.539,0.5398,0.5469,0.5423,0.5427,0.543,0.5594,0.5596,0.5598,0,0,0,0,0,0,0.5136,0.515,0.5264,0.5213,0.5227,0.5258,0.5289,0.5293,0.5313,0.5347,0.5352,0.5322,0.5381,0.5392,0.5447,0.5472,0.543,0.5434,0.5592,0.5594,0.5597,0.5612,0,0,0,0,0,0,0.5132,0.5148,0.5172,0.5214,0.523,0.5312,0.5291,0.5296,0.5321,0.532,0.5362,0.5367,0.538,0.544,0.5451,0.5477,0.5437,0.559,0.5593,0.5596,0.5609,0.5615,0.5619,0,0,0,0,0,0.5126,0.5173,0.5173,0.5187,0.526,0.5313,0.5323,0.5338,0.5323,0.5346,0.5368,0.5366,0.5468,0.5445,0.5458,0.5486,0.5588,0.5592,0.5596,0.5607,0.5614,0.5619,0,0,0,0,0,0,0.5133,0.5179,0.5179,0.5241,0.5273,0.5313,0.5343,0.5345,0.5381,0.5378,0.5395,0.5404,0.5459,0.5478,0.5453,0.5545,0.5526,0.5532,0.553,0.5537,0.5541,0.5535,0.5441,0,0,0,0,0,0.5142,0.5182,0.5219,0.527,0.5286,0.5312,0.5336,0.5344,0.5378,0.5392,0.5417,0.545,0.5489,0.5514,0.5552,0.5613,0.5621,0.5638,0.5643,0.5647,0.5652,0.5683,0.5691,0.561,0.561,0.561,0,0,0.516,0.519,0.5214,0.5272,0.5298,0.5338,0.5323,0.5367,0.5396,0.5398,0.5451,0.5471,0.5508,0.5566,0.5593,0.5584,0.5676,0.5652,0.5655,0.5658,0.5688,0.5696,0.5702,0.5613,0.5612,0.5612,0,0,0.5213,0.5241,0.5285,0.5312,0.5351,0.5368,0.5379,0.5419,0.5432,0.5486,0.5488,0.5523,0.559,0.5616,0.5638,0.57,0.5699,0.5712,0.5738,0.5768,0.5774,0.578,0.58,0.5808,0.5717,0.5717,0.5718,0,0.523,0.5292,0.5308,0.5351,0.5376,0.538,0.5424,0.5449,0.5499,0.5515,0.5505,0.5589,0.5615,0.5677,0.5692,0.5711,0.5722,0.5707,0.5772,0.5778,0.5784,0.5803,0.5811,0.5719,0.5719,0.5718,0.5718,0,0.531,0.5352,0.5383,0.5431,0.546,0.5503,0.5525,0.5552,0.5558,0.5576,0.5629,0.566,0.5703,0.5719,0.5726,0.5783,0.5776,0.5769,0.575,0.5792,0.5811,0.5818,0.572,0.572,0.572,0.5719,0,0,0.5369,0.5425,0.5436,0.5457,0.5501,0.5534,0.5577,0.562,0.5641,0.5676,0.5711,0.5768,0.5762,0.5787,0.5796,0.5823,0.5868,0.5813,0.5814,0.582,0.593,0.5933,0.5942,0.5868,0.587,0.5871,0.5926,0,0.5425,0.5502,0.5518,0.5584,0.5623,0.5627,0.5665,0.5695,0.5712,0.5746,0.5766,0.5805,0.5794,0.5809,0.5836,0.5857,0.589,0.5853,0.5899,0.5901,0.5888,0.5952,0.5956,0.6006,0.5934,0.5935,0.5936,0,0.5501,0.5537,0.5607,0.5645,0.5662,0.5695,0.5735,0.5768,0.5802,0.5813,0.584,0.5847,0.589,0.587,0.593,0.5904,0.5924,0.5937,0.594,0.5943,0.5919,0.5955,0.6023,0.603,0.5948,0.5947,0.5946,0,0.5534,0.56,0.5651,0.5669,0.5715,0.5738,0.5758,0.5791,0.5815,0.585,0.5865,0.5905,0.5925,0.5955,0.5971,0.5956,0.6029,0.6011,0.6037,0.6037,0.6051,0.605,0.6121,0.6067,0.6067,0.6067,0.6067,0,0.5594,0.5636,0.5666,0.5696,0.5743,0.5761,0.5807,0.5826,0.5855,0.5889,0.5896,0.5927,0.5948,0.5981,0.5995,0.604,0.605,0.6059,0.6062,0.6057,0.6056,0.6069,0.6065,0.6069,0.6069,0.6068,0.6068,0,0.5638,0.566,0.5715,0.5754,0.5764,0.5797,0.583,0.5859,0.5877,0.5919,0.593,0.5957,0.5997,0.6017,0.6067,0.6075,0.6127,0.6128,0.6115,0.6116,0.614,0.6137,0.6222,0.6233,0.6173,0.6174,0.6174,0,0.5674,0.5707,0.5749,0.5772,0.5793,0.5831,0.5855,0.5874,0.5899,0.594,0.5964,0.6004,0.6037,0.6101,0.6124,0.6162,0.6163,0.619,0.6169,0.6163,0.6161,0.6158,0.616,0.6193,0.6194,0.6194,0.6195,0,0.5735,0.5744,0.578,0.5819,0.5849,0.588,0.5912,0.593,0.5953,0.5981,0.6022,0.6048,0.6099,0.6138,0.6177,0.6197,0.6199,0.6202,0.6209,0.6204,0.6194,0.6198,0.6123,0.6199,0.6199,0.6198,0.6198,0.6198,0.5775,0.5803,0.5837,0.5876,0.5902,0.5931,0.596,0.5981,0.6016,0.6059,0.6067,0.611,0.6142,0.6195,0.6216,0.6249,0.6243,0.6255,0.6258,0.626,0.626,0.6191,0.6257,0.6257,0.6257,0.6257,0.6257,0,0.5834,0.5856,0.5892,0.5935,0.5966,0.5967,0.6001,0.6026,0.6064,0.6094,0.6127,0.6173,0.6211,0.6238,0.6276,0.6297,0.6299,0.6307,0.6304,0.6308,0.6264,0.6253,0.6304,0.6304,0.6304,0.6304,0.6304,0.6304,0.5868,0.5916,0.5929,0.5988,0.601,0.6053,0.6072,0.6098,0.6122,0.6174,0.6206,0.6223,0.6251,0.6292,0.6326,0.6333,0.6345,0.6353,0.6359,0.6317,0.6312,0.6307,0.6296,0.6356,0.6356,0.64,0.64,0.6401]},{"header":{"parameterUnit":"m.s-1","parameterCategory":1,"la1":30.2991,"la2":30.254,"lo1":-89.0895,"lo2":-89.0444,"dy":0.0017,"dx":0.0017,"nx":28,"ny":28,"refTime":"2024-08-22T21:00:00:Z","depth":0,"parameterNumber":3,"parameterNumberName":"V-component_of_WINDS"},"data":[0,0,0,0,0,0,0,0,0,0,0,0,0,0,0,0,0,0,0,0,0,0,0,0,0,0,0,0,0,0,0,0,0,0,0,0,0,0,0,0,0,0,0,0,0,0,0,0,0,0,0,0,0,0,0,0,0,0,1.7413,1.7412,0,1.7319,1.7318,1.7317,1.7245,1.7244,1.7244,1.7243,1.7145,1.7143,1.7141,0,0,0,0,0,0,0,0,0,0,0,0,0,1.7526,1.7524,1.7413,1.7412,1.7411,1.7319,1.7318,1.7317,1.7245,1.7244,1.7243,1.7243,1.7146,1.7143,1.7141,0,0,0,0,0,0,0,0,0,0,0,0,0,1.7459,1.7524,1.7413,1.7364,1.7359,1.732,1.7318,1.7317,1.7245,1.7244,1.7243,1.7242,1.7147,1.7144,1.7141,1.7143,0,0,1.7132,1.713,0,0,0,0,0,0,0,0,1.7463,1.7455,1.7372,1.7367,1.7361,1.7293,1.7322,1.7258,1.7246,1.7288,1.7243,1.7242,1.7195,1.7188,1.7173,1.7138,1.7134,1.7131,1.713,1.7128,1.7127,0,0,0,0,0,0,0,1.7468,1.7459,1.7376,1.7371,1.7364,1.7345,1.7335,1.731,1.7248,1.7284,1.7279,1.7269,1.7192,1.7176,1.717,1.7132,1.7131,1.7129,1.7127,1.7126,1.7091,1.7091,0,0,0,0,0,0,1.748,1.7463,1.7379,1.7373,1.7411,1.7344,1.7332,1.7316,1.7248,1.7237,1.727,1.7266,1.7181,1.7173,1.7166,1.7161,1.7128,1.7126,1.7124,1.709,1.7091,1.7092,0,0,0,0,0,0,1.7483,1.7474,1.7383,1.7416,1.7403,1.7343,1.7325,1.7314,1.7298,1.7238,1.7226,1.7265,1.718,1.717,1.7148,1.7156,1.7124,1.7122,1.7089,1.709,1.7091,1.7152,0,0,0,0,0,0,1.7487,1.7475,1.7476,1.7417,1.7402,1.7368,1.7326,1.7313,1.7294,1.7287,1.723,1.7219,1.7178,1.7153,1.7145,1.7152,1.7119,1.7088,1.7089,1.7091,1.7149,1.7156,1.7161,0,0,0,0,0,1.7491,1.7498,1.7477,1.7467,1.7402,1.7368,1.736,1.7313,1.7295,1.7294,1.7255,1.7221,1.7157,1.7151,1.7142,1.7148,1.7087,1.7089,1.7091,1.7147,1.7154,1.7161,0,0,0,0,0,0,1.7559,1.7489,1.7465,1.7453,1.7417,1.7356,1.7355,1.7323,1.7292,1.7287,1.723,1.7218,1.7201,1.7173,1.7167,1.7144,1.7117,1.7118,1.7163,1.717,1.7176,1.7182,1.7117,0,0,0,0,0,1.7573,1.7552,1.7492,1.7487,1.747,1.7416,1.7399,1.7366,1.7327,1.7311,1.727,1.7232,1.7203,1.7185,1.7156,1.7145,1.713,1.7144,1.715,1.7155,1.7155,1.7144,1.7149,1.7098,1.7098,1.7098,0,0,1.7601,1.756,1.755,1.7499,1.7468,1.7446,1.7403,1.7383,1.7365,1.7308,1.7284,1.7253,1.7206,1.7189,1.718,1.7165,1.7166,1.7158,1.7162,1.7159,1.7146,1.7151,1.7156,1.7099,1.7099,1.7099,0,0,1.7639,1.7608,1.7598,1.7567,1.752,1.7484,1.7482,1.7425,1.7402,1.7377,1.7332,1.7311,1.7263,1.723,1.7208,1.7233,1.7199,1.7225,1.7254,1.7244,1.7248,1.7251,1.7256,1.7259,1.7225,1.7225,1.7225,0,1.7679,1.7646,1.7598,1.7579,1.7556,1.7504,1.7492,1.7464,1.741,1.7395,1.7379,1.7316,1.7281,1.7254,1.726,1.7245,1.7238,1.723,1.7251,1.7254,1.7256,1.7261,1.7263,1.7229,1.7228,1.7228,1.7228,0,1.7696,1.7673,1.7671,1.7619,1.7597,1.7582,1.753,1.7513,1.7482,1.7446,1.742,1.7377,1.7336,1.7327,1.7297,1.7295,1.7287,1.7262,1.7234,1.7265,1.7268,1.727,1.7233,1.7232,1.7231,1.723,0,0,1.7774,1.7695,1.7695,1.7669,1.7612,1.7593,1.7575,1.7535,1.752,1.7484,1.7465,1.7425,1.7401,1.7376,1.7341,1.7333,1.7351,1.7308,1.7306,1.7315,1.7342,1.7359,1.7362,1.7329,1.7329,1.7329,1.7344,0,1.7801,1.7767,1.7722,1.7701,1.7678,1.7627,1.761,1.7573,1.7539,1.7513,1.7475,1.7447,1.7419,1.7403,1.7392,1.7351,1.7355,1.735,1.7308,1.7308,1.7319,1.7364,1.7382,1.7399,1.7346,1.7346,1.7346,0,1.7829,1.7795,1.7772,1.7715,1.7703,1.769,1.7648,1.7625,1.758,1.7556,1.7527,1.7489,1.7465,1.7442,1.7406,1.7403,1.7384,1.7361,1.736,1.7353,1.7327,1.7355,1.7403,1.7405,1.7348,1.7348,1.7348,0,1.7884,1.7833,1.7812,1.7792,1.7726,1.7717,1.7689,1.7643,1.7621,1.7585,1.7569,1.7531,1.7509,1.7478,1.7431,1.7418,1.7399,1.7372,1.7376,1.7377,1.7372,1.7373,1.7416,1.7364,1.7364,1.7364,1.7364,0,1.7918,1.7905,1.7835,1.7822,1.7805,1.7754,1.7738,1.7705,1.7665,1.7643,1.7597,1.7577,1.7516,1.7488,1.7451,1.7425,1.7416,1.7394,1.7384,1.7397,1.7399,1.7382,1.7378,1.7365,1.7365,1.7365,1.7365,0,1.7976,1.7929,1.7902,1.7841,1.7826,1.7816,1.7763,1.7747,1.7711,1.7683,1.7674,1.7616,1.758,1.753,1.748,1.7454,1.7433,1.7418,1.7448,1.7441,1.7447,1.7446,1.7478,1.7478,1.743,1.743,1.7431,0,1.7999,1.7988,1.7926,1.7908,1.7881,1.7853,1.783,1.7779,1.7756,1.7704,1.7694,1.7655,1.7621,1.7567,1.7519,1.7479,1.7461,1.7475,1.7455,1.7467,1.7458,1.7458,1.7455,1.7479,1.748,1.7481,1.7481,0,1.8044,1.8021,1.799,1.7951,1.7925,1.7891,1.7855,1.7843,1.7783,1.776,1.7724,1.7698,1.7646,1.7607,1.756,1.7529,1.7494,1.7488,1.7486,1.7499,1.7515,1.7503,1.7458,1.7487,1.7487,1.7486,1.7486,1.7486,1.8083,1.8069,1.8023,1.799,1.7957,1.7924,1.7906,1.7867,1.7836,1.779,1.7761,1.7725,1.7678,1.7613,1.7583,1.7553,1.7539,1.7537,1.7536,1.7536,1.7539,1.7522,1.7544,1.7544,1.7544,1.7544,1.7544,0,1.8122,1.809,1.806,1.8011,1.7984,1.7956,1.7914,1.7893,1.7862,1.7822,1.779,1.7746,1.7708,1.7657,1.7615,1.76,1.7583,1.759,1.7589,1.7582,1.7555,1.756,1.7605,1.7605,1.7605,1.7605,1.7605,1.7605,1.814,1.8115,1.8086,1.8044,1.8011,1.7976,1.7955,1.7923,1.7891,1.7845,1.7813,1.778,1.7735,1.7688,1.7651,1.7637,1.7622,1.7634,1.7615,1.759,1.7584,1.7579,1.7583,1.7632,1.7632,1.7643,1.7643,1.7644]}]]